FRS119N EDRY-EDFM

Flight info

Callsign FRS119N
Flight time 0h -26m
Altitude 3000
Route DCT
Aircraft C172/L-SFG/C

Departure

Time 2026-05-08 19:06
Airport Speyer Airfield (EDRY)

Arrival

Time 2026-05-08 18:40
Airport Mannheim-City Airport (EDFM)
Time Latitude Longitude Altitude Speed Heading
2026-05-08 18:39 49.30310 8.45420 325 ft 0 kts 255°
2026-05-08 18:40 49.30314 8.45410 326 ft 7 kts 347°
2026-05-08 18:40 49.30329 8.45402 325 ft 0 kts 255°
2026-05-08 18:49 49.30329 8.45401 325 ft 0 kts 255°
2026-05-08 18:57 49.30324 8.45394 324 ft 6 kts 209°
2026-05-08 18:57 49.30250 8.45397 323 ft 11 kts 171°
2026-05-08 18:58 49.30152 8.45434 324 ft 16 kts 163°
2026-05-08 18:58 49.30049 8.45476 324 ft 14 kts 163°
2026-05-08 18:58 49.30032 8.45483 324 ft 1 kts 168°
2026-05-08 18:58 49.29980 8.45503 324 ft 13 kts 167°
2026-05-08 18:59 49.29867 8.45550 324 ft 19 kts 164°
2026-05-08 18:59 49.29784 8.45582 324 ft 17 kts 166°
2026-05-08 18:59 49.29651 8.45635 324 ft 10 kts 168°
2026-05-08 18:59 49.29644 8.45638 324 ft 0 kts 165°
2026-05-08 19:01 49.29633 8.45642 323 ft 5 kts 168°
2026-05-08 19:01 49.29612 8.45642 323 ft 3 kts 193°
2026-05-08 19:02 49.29597 8.45622 324 ft 0 kts 249°
2026-05-08 19:02 49.29597 8.45620 324 ft 0 kts 252°
2026-05-08 19:04 49.29594 8.45594 323 ft 9 kts 262°
2026-05-08 19:04 49.29611 8.45524 324 ft 8 kts 345°
2026-05-08 19:05 49.29782 8.45456 326 ft 50 kts 346°
2026-05-08 19:05 49.30235 8.45256 394 ft 78 kts 348°
2026-05-08 19:05 49.30773 8.45071 618 ft 80 kts 355°
2026-05-08 19:05 49.31334 8.45012 775 ft 84 kts
2026-05-08 19:06 49.31884 8.45340 955 ft 85 kts 33°
2026-05-08 19:06 49.32368 8.45908 1108 ft 88 kts 33°
2026-05-08 19:06 49.32921 8.46287 1287 ft 92 kts 24°
2026-05-08 19:06 49.33565 8.46631 1318 ft 104 kts 25°
2026-05-08 19:07 49.34161 8.47116 1540 ft 97 kts 35°
2026-05-08 19:07 49.34811 8.47560 1592 ft 108 kts 26°
2026-05-08 19:07 49.35500 8.47929 1817 ft 99 kts 23°
2026-05-08 19:07 49.36198 8.48262 1855 ft 107 kts 24°
2026-05-08 19:08 49.36828 8.48827 1928 ft 107 kts 43°
2026-05-08 19:08 49.37431 8.49560 1885 ft 116 kts 37°
2026-05-08 19:08 49.38115 8.50213 1874 ft 110 kts 34°
2026-05-08 19:08 49.38811 8.50419 1821 ft 108 kts 344°
2026-05-08 19:09 49.39462 8.49810 1701 ft 113 kts 331°
2026-05-08 19:09 49.40068 8.49025 1619 ft 113 kts 313°
2026-05-08 19:09 49.40468 8.47959 1553 ft 114 kts 302°
2026-05-08 19:09 49.40813 8.46889 1524 ft 112 kts 301°
2026-05-08 19:10 49.41229 8.45891 1507 ft 109 kts 314°
2026-05-08 19:10 49.41734 8.45028 1519 ft 110 kts 317°
2026-05-08 19:10 49.42315 8.44325 1558 ft 103 kts 343°
2026-05-08 19:10 49.42998 8.44174 1557 ft 102 kts 14°
2026-05-08 19:11 49.43718 8.44414 1477 ft 107 kts 19°
2026-05-08 19:11 49.44433 8.44655 1437 ft 104 kts
2026-05-08 19:11 49.45175 8.44573 1302 ft 109 kts 357°
2026-05-08 19:11 49.45916 8.44304 1233 ft 108 kts 348°
2026-05-08 19:12 49.46390 8.43576 1282 ft 99 kts 263°
2026-05-08 19:12 49.46019 8.42845 1350 ft 93 kts 177°
2026-05-08 19:12 49.45502 8.43198 1343 ft 87 kts 101°
2026-05-08 19:12 49.45598 8.43963 1473 ft 78 kts 35°
2026-05-08 19:13 49.46149 8.43933 1580 ft 87 kts 321°
2026-05-08 19:13 49.46377 8.43016 1576 ft 106 kts 253°
2026-05-08 19:13 49.45996 8.42112 1633 ft 104 kts 197°
2026-05-08 19:13 49.45342 8.42065 1695 ft 94 kts 142°
2026-05-08 19:14 49.44868 8.42690 1773 ft 92 kts 111°
2026-05-08 19:14 49.44949 8.43531 1813 ft 87 kts 23°
2026-05-08 19:14 49.45527 8.43279 1756 ft 105 kts 309°
2026-05-08 19:14 49.45963 8.42369 1564 ft 106 kts 327°
2026-05-08 19:15 49.46582 8.41979 1473 ft 87 kts 13°
2026-05-08 19:15 49.47077 8.42341 1373 ft 79 kts 45°
2026-05-08 19:15 49.47402 8.43048 1219 ft 83 kts 67°
2026-05-08 19:15 49.47510 8.43917 1122 ft 84 kts 87°
2026-05-08 19:16 49.47475 8.44829 1017 ft 84 kts 91°
2026-05-08 19:16 49.47444 8.45680 935 ft 80 kts 88°
2026-05-08 19:16 49.47418 8.46519 834 ft 77 kts 86°
2026-05-08 19:16 49.47413 8.47362 715 ft 79 kts 87°
2026-05-08 19:17 49.47383 8.48208 651 ft 82 kts 93°
2026-05-08 19:17 49.47355 8.49097 561 ft 85 kts 89°
2026-05-08 19:17 49.47313 8.49971 476 ft 76 kts 89°
2026-05-08 19:17 49.47288 8.50730 333 ft 65 kts 80°
2026-05-08 19:18 49.47344 8.51202 310 ft 25 kts 73°
2026-05-08 19:18 49.47278 8.51392 310 ft 16 kts 102°
2026-05-08 19:18 49.47269 8.51565 309 ft 11 kts 104°
2026-05-08 19:18 49.47259 8.51690 307 ft 17 kts 85°
2026-05-08 19:19 49.47258 8.51888 311 ft 16 kts 93°
2026-05-08 19:19 49.47259 8.52027 312 ft 11 kts 68°
2026-05-08 19:19 49.47283 8.52052 311 ft 0 kts 29°
2026-05-08 19:19 49.47284 8.52053 311 ft 1 kts 30°
2026-05-08 19:20 49.47292 8.52099 311 ft 8 kts 93°
2026-05-08 19:20 49.47307 8.52149 312 ft 9 kts 14°
2026-05-08 19:20 49.47381 8.52159 314 ft 9 kts
2026-05-08 19:20 49.47446 8.52165 314 ft 13 kts
2026-05-08 19:21 49.47539 8.52172 313 ft 13 kts
2026-05-08 19:21 49.47591 8.52141 313 ft 8 kts 286°
2026-05-08 19:21 49.47571 8.52084 313 ft 6 kts 181°
2026-05-08 19:21 49.47560 8.52084 313 ft 0 kts 179°